Temp
83 78 75 75 75 75 75 75 75 76 76 77 77 77 77 77 77 77 77 77 78 78 79 78 78 78 78 77 77 77 76 76 76 76 77 78 78 78 77 77 76 76 75
83 80 74 75 75 75 75 75 75 76 76 77 77 77 77 77 77 77 77 77 77 78 79 79 78 78 77 77 76 75 75 75 75 76 77 77 77 76 76 75 75 75 75
84 79 78 75 75 75 76 75 76 76 77 77 77 77 77 77 77 77 76 77 78 78 79 78 78 77 77 75 75 75 75 75 75 76 78 76 75 76 75 75 74 75 74
86 82 79 74 75 75 75 75 75 76 76 77 77 77 77 77 77 76 76 76 77 77 78 79 78 77 75 75 74 74 74 74 74 77 78 78 77 76 75 75 74 74 73
87 86 78 74 75 75 75 75 75 75 75 75 76 77 77 77 77 76 75 75 76 76 78 78 77 76 74 73 73 73 74 74 74 79 77 75 74 75 74 73 73 72 72
89 84 74 73 74 75 75 75 75 75 74 74 75 76 77 76 76 75 74 75 75 75 78 77 75 74 73 73 73 73 73 73 75 76 75 74 72 73 73 72 72 71 71
82 80 77 73 73 75 75 75 74 74 73 73 74 75 75 74 74 73 73 73 74 75 76 75 74 73 73 72 73 73 73 74 77 76 74 72 72 73 72 71 71 70 70
83 81 77 74 73 74 74 74 73 73 72 72 73 74 74 73 73 73 73 72 72 73 73 73 72 72 72 72 72 72 72 73 80 73 72 71 72 72 72 71 70 70 70
85 79 78 77 75 73 72 72 72 72 72 72 73 73 72 71 71 72 72 71 72 73 72 72 72 72 72 72 72 71 72 76 76 75 73 71 72 71 72 70 70 70 69
83 79 78 77 77 76 74 71 71 71 71 71 71 70 71 71 72 71 71 71 71 72 72 72 71 71 71 71 71 71 73 75 76 73 71 71 71 71 71 70 70 69 69
81 79 78 77 78 77 75 74 72 72 71 71 70 70 70 72 72 70 69 69 71 71 71 71 71 70 70 71 71 71 75 76 75 72 70 70 71 71 70 70 69 69 69
77 77 77 76 77 77 76 73 73 73 71 71 70 70 71 73 71 73 72 71 70 70 70 70 70 69 70 73 72 72 75 75 73 70 69 70 70 71 70 69 69 68 68
78 76 77 76 77 77 74 72 71 71 70 70 70 70 69 74 70 71 70 71 70 71 71 71 69 73 74 75 72 70 71 75 72 70 68 69 70 71 70 69 68 68 67
79 79 79 80 77 76 73 72 70 69 69 68 68 69 67 74 70 71 73 72 71 72 71 72 72 73 74 74 72 71 74 73 70 69 67 68 70 70 70 69 69 68 67
80 80 79 80 77 77 73 71 70 69 69 68 67 68 67 74 73 74 73 74 74 75 73 73 73 72 72 72 72 73 72 72 70 68 66 67 68 70 70 70 69 68 67
83 79 79 80 77 77 74 71 70 69 69 67 67 67 67 73 74 74 74 75 75 76 76 75 74 69 69 70 71 71 72 71 68 67 67 64 67 68 69 69 69 68 67
86 82 77 77 78 76 74 72 70 69 68 67 66 67 67 68 70 75 76 75 75 77 76 72 70 70 69 71 68 70 70 70 67 68 67 64 63 65 66 67 68 67 66
90 83 79 81 78 75 75 73 71 69 68 67 65 66 67 69 71 70 74 76 76 73 70 70 70 68 69 68 67 69 68 69 68 68 69 68 65 64 63 65 66 66 66
91 82 79 78 76 76 75 74 71 70 68 67 66 66 69 71 73 71 73 74 74 69 69 69 69 68 66 66 66 67 67 67 67 69 68 68 65 64 62 63 64 64 64
92 83 79 77 75 75 75 75 73 69 69 68 66 67 72 75 74 73 73 74 75 69 69 70 67 68 66 66 65 63 64 65 65 65 67 70 68 65 62 59 57 59 63
89 82 79 75 75 74 72 71 71 68 68 67 67 66 66 66 75 75 75 75 75 70 71 70 67 65 64 63 58 57 57 59 61 64 66 66 68 66 62 60 60 58 58
86 80 79 76 73 74 73 73 73 72 70 68 67 65 65 64 66 74 73 72 74 72 70 69 67 65 63 63 61 59 52 54 57 62 62 64 64 65 64 64 62 61 58
83 79 80 77 75 74 74 73 73 72 70 66 65 64 64 65 66 70 73 73 72 72 69 69 67 66 61 64 65 62 54 55 55 58 57 61 60 61 62 63 63 63 60
83 81 80 77 74 74 73 73 72 69 67 68 66 66 64 65 65 67 72 75 73 73 70 69 69 67 66 62 65 68 67 64 57 53 57 58 59 62 61 60 61 62 61
82 80 79 75 73 73 72 72 71 72 71 71 68 66 64 65 66 69 72 72 74 73 70 70 68 69 68 65 65 63 64 64 64 58 53 56 60 60 61 60 59 59 62
64 63 78 74 73 72 71 71 71 71 73 70 69 66 66 66 69 72 74 72 73 73 71 70 69 69 69 69 68 67 65 63 61 59 55 55 57 59 61 61 59 59 59
MSLP
1004.50 1005.67 1006.42 1006.86 1007.19 1007.57 1007.93 1008.27 1008.55 1008.79 1009.20 1009.71 1010.11 1010.57 1010.92 1011.31 1011.87 1012.44 1012.78 1013.12 1013.62 1014.14 1014.37 1014.94 1015.33 1015.57 1015.78 1016.03 1016.38 1016.52 1016.53 1016.85 1017.23 1017.74 1018.02 1018.27 1018.46 1018.72 1018.89 1019.01 1019.22 1019.62 1019.73
1004.75 1005.95 1006.56 1007.08 1007.41 1007.80 1008.20 1008.50 1008.80 1009.06 1009.46 1009.88 1010.38 1010.83 1011.25 1011.68 1012.24 1012.82 1013.22 1013.55 1013.99 1014.46 1014.87 1015.25 1015.67 1016.05 1016.24 1016.47 1016.64 1016.80 1017.11 1017.47 1017.74 1018.17 1018.44 1018.75 1019.02 1019.31 1019.45 1019.68 1019.92 1020.19 1020.25
1004.92 1006.09 1006.67 1007.12 1007.58 1007.94 1008.41 1008.70 1009.03 1009.29 1009.63 1010.08 1010.54 1011.03 1011.58 1011.94 1012.49 1013.14 1013.64 1014.02 1014.38 1014.78 1015.21 1015.70 1016.04 1016.45 1016.61 1016.76 1016.95 1017.14 1017.51 1017.65 1018.01 1018.33 1018.52 1019.15 1019.56 1019.72 1019.97 1020.23 1020.41 1020.63 1020.79
1004.71 1006.08 1006.76 1007.23 1007.65 1008.06 1008.57 1008.89 1009.22 1009.50 1009.86 1010.30 1010.75 1011.20 1011.86 1012.30 1012.85 1013.35 1014.03 1014.19 1014.80 1015.08 1015.56 1016.08 1016.41 1016.89 1016.93 1017.14 1017.25 1017.71 1018.12 1018.20 1018.37 1018.35 1018.90 1019.41 1019.91 1020.22 1020.46 1020.69 1020.91 1021.10 1021.26
1004.73 1005.41 1006.68 1007.33 1007.68 1008.16 1008.66 1009.09 1009.37 1009.73 1010.09 1010.62 1010.98 1011.47 1012.12 1012.61 1013.33 1013.84 1014.39 1014.81 1015.18 1015.60 1015.86 1016.43 1016.90 1017.15 1017.32 1017.48 1017.74 1018.01 1018.17 1018.25 1018.42 1018.64 1019.28 1019.97 1020.40 1020.80 1020.99 1021.24 1021.49 1021.73 1021.80
1004.39 1005.16 1006.68 1007.28 1007.68 1008.19 1008.69 1009.19 1009.50 1009.79 1010.32 1010.97 1011.26 1011.84 1012.40 1013.10 1013.70 1014.24 1014.61 1015.10 1015.55 1015.96 1016.26 1016.90 1017.26 1017.41 1017.61 1017.75 1017.89 1018.08 1018.47 1018.62 1018.97 1019.40 1020.01 1020.45 1020.90 1021.28 1021.55 1021.87 1022.05 1022.22 1022.38
1004.87 1005.96 1006.57 1007.30 1007.70 1008.24 1008.67 1009.21 1009.60 1009.89 1010.57 1011.17 1011.63 1012.24 1012.89 1013.53 1013.94 1014.55 1015.10 1015.45 1015.98 1016.32 1016.81 1017.27 1017.46 1017.67 1017.90 1018.15 1018.13 1018.35 1018.59 1018.68 1019.00 1019.85 1020.43 1021.04 1021.39 1021.74 1022.01 1022.30 1022.52 1022.68 1022.90
1004.95 1005.90 1006.69 1007.45 1007.82 1008.32 1008.66 1009.20 1009.67 1010.01 1010.75 1011.42 1011.93 1012.55 1013.21 1013.76 1014.29 1014.83 1015.32 1015.77 1016.25 1016.82 1017.15 1017.59 1017.86 1017.89 1018.26 1018.35 1018.54 1018.77 1018.88 1018.88 1019.28 1020.28 1020.98 1021.57 1021.79 1022.21 1022.44 1022.70 1022.92 1023.10 1023.26
1004.78 1005.94 1006.64 1007.27 1007.87 1008.34 1008.71 1009.25 1009.63 1010.28 1011.00 1011.61 1012.16 1012.80 1013.47 1014.14 1014.60 1015.10 1015.55 1016.18 1016.66 1017.09 1017.14 1017.64 1018.03 1018.08 1018.50 1018.76 1019.01 1019.00 1019.00 1018.93 1019.86 1020.55 1021.37 1021.93 1022.18 1022.59 1022.81 1023.06 1023.28 1023.43 1023.64
1005.19 1005.98 1006.77 1007.17 1007.63 1008.20 1008.74 1009.28 1009.75 1010.53 1011.20 1011.81 1012.33 1012.98 1013.67 1014.29 1014.77 1015.25 1015.79 1016.23 1016.90 1017.23 1017.31 1017.61 1018.01 1018.24 1018.77 1019.00 1019.09 1018.94 1018.96 1019.44 1020.29 1021.11 1021.89 1022.32 1022.60 1022.86 1023.14 1023.41 1023.60 1023.80 1024.00
1005.55 1006.26 1006.78 1007.23 1007.37 1007.84 1008.59 1009.34 1009.94 1010.65 1011.35 1011.98 1012.72 1013.35 1013.88 1014.42 1014.98 1015.58 1015.99 1016.55 1016.99 1017.36 1017.58 1017.86 1018.11 1018.48 1018.87 1019.18 1019.17 1019.16 1019.35 1019.86 1020.58 1021.55 1022.32 1022.64 1022.84 1023.19 1023.48 1023.77 1023.95 1024.17 1024.32
1005.70 1006.59 1006.97 1007.21 1007.48 1007.73 1008.54 1009.31 1009.98 1010.70 1011.46 1011.99 1012.74 1013.25 1013.77 1014.24 1014.96 1015.46 1016.09 1016.65 1016.98 1017.40 1017.89 1018.22 1018.39 1018.64 1018.89 1019.07 1019.33 1019.39 1019.77 1020.26 1021.13 1022.04 1022.71 1022.98 1023.20 1023.51 1023.90 1024.09 1024.29 1024.53 1024.74
1005.01 1006.39 1006.86 1007.10 1007.41 1007.80 1008.65 1009.20 1009.96 1010.73 1011.53 1012.02 1012.68 1013.23 1013.66 1014.07 1014.85 1015.59 1016.27 1016.76 1017.16 1017.59 1018.09 1018.45 1018.75 1018.77 1018.53 1018.82 1019.26 1019.79 1020.11 1020.67 1021.54 1022.40 1023.09 1023.32 1023.57 1023.77 1024.16 1024.35 1024.55 1024.82 1025.06
1004.03 1005.04 1006.37 1006.84 1007.23 1007.72 1008.51 1009.29 1009.82 1010.68 1011.29 1011.72 1012.69 1013.24 1013.70 1013.90 1014.85 1015.31 1015.82 1016.53 1017.09 1017.45 1017.88 1018.24 1018.56 1018.48 1018.53 1018.95 1019.64 1020.09 1020.42 1020.96 1021.96 1022.83 1023.34 1023.58 1023.73 1023.94 1024.30 1024.61 1024.79 1025.05 1025.29
1002.94 1004.02 1005.32 1006.27 1007.02 1007.55 1008.49 1009.35 1009.84 1010.60 1011.19 1012.03 1012.79 1013.22 1013.52 1013.68 1014.49 1014.85 1015.38 1016.10 1016.69 1016.82 1017.46 1017.83 1018.13 1018.33 1018.57 1019.23 1019.94 1020.18 1020.65 1021.37 1022.19 1022.93 1023.50 1023.76 1024.03 1024.18 1024.39 1024.71 1024.95 1025.22 1025.47
1001.96 1003.38 1004.46 1005.63 1006.57 1007.14 1008.18 1009.06 1009.85 1010.38 1011.07 1011.90 1012.86 1013.23 1013.50 1013.35 1014.09 1014.63 1015.15 1015.59 1016.13 1016.41 1016.83 1017.31 1017.73 1018.42 1018.91 1019.49 1020.12 1020.52 1021.00 1021.66 1022.42 1022.99 1023.56 1023.96 1024.20 1024.44 1024.57 1024.82 1025.09 1025.36 1025.62
1001.13 1002.59 1003.89 1005.12 1006.09 1006.80 1007.63 1008.81 1009.50 1010.17 1010.94 1011.72 1012.71 1013.20 1013.23 1013.43 1013.96 1014.14 1014.83 1015.29 1015.52 1015.86 1016.22 1016.91 1017.66 1018.34 1019.33 1019.65 1020.48 1020.88 1021.34 1021.91 1022.56 1023.07 1023.53 1024.16 1024.52 1024.70 1024.85 1024.98 1025.30 1025.58 1025.90
1000.13 1001.55 1003.24 1004.58 1005.72 1006.56 1007.11 1008.31 1009.29 1010.02 1010.77 1011.60 1012.24 1013.10 1013.27 1013.40 1013.59 1013.91 1014.39 1014.69 1014.97 1015.54 1016.11 1016.99 1018.04 1018.84 1019.48 1020.11 1020.84 1021.20 1021.64 1021.98 1022.52 1022.85 1023.21 1023.83 1024.38 1024.80 1025.06 1025.25 1025.51 1025.77 1026.13
999.28 1000.84 1002.54 1003.84 1005.32 1006.28 1006.71 1007.78 1009.00 1009.83 1010.62 1011.42 1012.33 1013.30 1013.80 1013.44 1013.65 1013.83 1014.06 1014.38 1014.78 1015.79 1016.54 1017.51 1018.16 1018.55 1019.79 1020.56 1021.11 1021.59 1021.94 1022.26 1022.52 1022.72 1023.01 1023.36 1023.89 1024.46 1025.00 1025.45 1025.65 1025.90 1026.20
998.56 1000.04 1001.83 1003.32 1004.93 1005.93 1006.48 1007.17 1008.45 1009.47 1010.29 1010.91 1011.51 1012.86 1013.39 1013.45 1013.42 1013.92 1014.02 1014.25 1014.56 1015.92 1016.71 1017.49 1017.83 1019.00 1019.94 1020.68 1021.43 1022.11 1022.33 1022.66 1022.84 1022.89 1022.95 1023.17 1023.47 1024.20 1024.72 1025.33 1025.72 1025.98 1026.22
997.89 999.41 1001.06 1002.75 1004.23 1005.46 1006.14 1006.66 1007.67 1008.57 1009.68 1010.36 1010.46 1011.58 1012.59 1013.13 1013.16 1013.68 1013.96 1014.33 1014.38 1015.30 1016.22 1016.95 1017.77 1018.84 1020.27 1020.92 1021.64 1022.83 1023.18 1023.39 1023.36 1023.18 1023.09 1023.21 1023.23 1023.68 1024.38 1024.92 1025.37 1025.75 1026.05
997.42 998.98 1000.37 1002.08 1003.74 1005.02 1005.64 1006.13 1007.06 1008.08 1009.04 1009.98 1011.16 1012.04 1012.62 1013.01 1013.25 1013.21 1013.52 1013.61 1014.12 1014.92 1015.50 1016.76 1017.60 1018.95 1020.22 1020.52 1021.01 1022.06 1023.35 1024.00 1023.74 1023.31 1023.22 1023.18 1023.32 1023.38 1023.86 1024.33 1024.57 1025.13 1025.52
997.33 998.66 999.83 1001.37 1003.02 1004.59 1005.41 1005.74 1006.66 1007.89 1008.86 1009.89 1010.89 1011.95 1012.30 1012.36 1012.81 1013.27 1013.10 1013.16 1013.55 1014.00 1015.27 1016.70 1017.30 1018.05 1019.36 1020.01 1020.00 1020.11 1021.86 1022.09 1023.01 1023.46 1023.42 1023.38 1023.38 1023.33 1023.39 1023.66 1023.91 1024.29 1024.85
997.48 998.08 999.27 1000.76 1002.40 1003.87 1005.11 1005.51 1005.96 1006.80 1007.64 1008.52 1009.88 1011.14 1012.28 1013.04 1013.31 1013.24 1012.68 1012.88 1013.35 1013.85 1015.26 1016.14 1017.03 1017.49 1018.54 1019.14 1019.58 1019.03 1018.93 1019.66 1021.17 1022.84 1023.22 1023.23 1023.18 1023.11 1023.14 1023.37 1023.63 1023.85 1024.21
998.91 997.52 998.56 1000.14 1001.75 1003.02 1004.51 1005.38 1005.66 1005.97 1006.87 1007.73 1009.12 1010.49 1011.85 1012.60 1013.06 1012.90 1012.95 1012.58 1013.01 1013.68 1014.59 1015.65 1016.67 1017.01 1017.84 1018.39 1018.43 1018.50 1018.85 1019.12 1019.46 1020.54 1021.97 1022.57 1022.76 1022.63 1022.73 1022.91 1023.21 1023.52 1023.86
1002.02 1001.65 998.19 999.69 1000.85 1002.24 1003.46 1004.81 1005.43 1005.77 1005.67 1006.84 1007.94 1009.42 1010.63 1011.81 1012.09 1012.24 1012.13 1012.06 1012.60 1013.22 1014.15 1015.01 1015.87 1016.42 1016.95 1017.44 1017.70 1017.88 1018.08 1018.52 1019.00 1019.67 1020.71 1021.60 1022.00 1022.12 1022.30 1022.42 1022.75 1023.13 1023.39
Wind_Speed
14 16 15 13 12 12 10 11 11 14 13 13 15 16 17 18 19 18 18 18 19 17 19 18 17 19 22 23 21 21 23 23 23 20 19 17 17 15 13 16 19 17 20
17 16 14 14 13 12 11 11 11 12 14 15 16 17 18 18 18 19 16 18 18 18 20 20 19 20 22 21 20 20 21 21 21 20 19 22 22 23 24 21 19 16 19
16 15 15 13 12 12 10 11 11 13 15 16 16 17 18 19 17 19 17 18 19 20 20 21 21 21 21 19 18 18 19 20 20 19 19 12 14 21 21 19 18 19 18
17 13 14 12 13 12 10 10 11 14 16 16 17 18 18 19 19 20 16 19 17 21 21 20 21 20 19 16 15 14 13 14 14 18 11 12 14 20 20 20 20 19 19
15 14 16 13 13 12 11 11 11 15 16 15 16 18 19 18 19 19 16 16 17 18 20 21 21 19 15 12 12 12 13 12 10 13 14 12 11 16 19 19 19 18 18
14 18 17 14 12 12 10 11 12 17 16 14 15 18 20 19 18 18 17 17 19 18 20 20 20 16 14 12 12 9 5 5 7 15 10 15 12 18 19 18 17 18 17
17 14 16 14 12 11 11 11 13 17 18 15 16 21 21 20 20 17 17 18 18 19 19 18 17 15 13 9 8 5 0 1 16 12 13 12 13 19 18 17 17 17 17
16 14 13 13 11 10 10 12 13 17 19 18 18 22 21 19 18 18 18 19 20 18 18 16 14 14 11 8 7 5 3 3 15 14 14 10 18 17 17 18 17 17 17
12 14 10 10 10 9 11 11 16 19 19 21 20 17 19 17 18 18 19 21 20 17 19 17 13 13 10 9 7 4 3 17 13 10 12 8 19 17 17 17 17 17 17
7 12 10 10 10 10 9 13 20 21 20 21 19 19 15 18 19 19 19 19 18 17 18 19 14 12 10 9 6 2 11 22 13 13 9 9 17 16 16 17 16 16 16
8 8 7 9 9 10 11 13 17 20 20 20 19 18 13 11 13 16 16 18 21 18 18 17 14 11 11 7 4 3 12 9 11 9 7 15 17 16 16 15 16 16 16
9 6 8 7 9 11 10 13 12 13 10 10 11 13 8 11 11 14 15 19 18 17 16 14 12 11 9 6 4 3 7 10 9 9 6 15 16 16 16 15 15 15 15
16 9 8 7 9 11 9 8 7 7 6 8 12 11 6 9 11 9 8 8 9 14 8 10 9 6 6 6 5 6 7 10 8 7 9 15 15 15 15 15 15 15 15
18 17 13 13 10 11 9 8 9 8 8 7 9 10 3 7 10 9 8 9 9 8 11 9 7 8 7 8 9 7 10 9 8 6 7 13 13 15 15 14 14 14 14
19 18 16 13 12 11 12 9 9 10 9 9 9 8 3 5 8 10 10 10 10 9 10 10 9 5 6 10 8 9 10 12 12 7 5 13 12 13 14 14 14 14 13
19 19 18 13 14 14 13 14 11 10 11 11 10 7 6 5 8 10 11 11 10 10 9 9 8 5 6 10 9 9 9 10 10 10 6 6 10 12 12 13 13 12 13
15 20 18 15 14 14 16 14 12 11 12 11 9 10 4 2 5 13 12 11 9 8 12 6 9 8 8 8 10 8 8 10 9 10 9 5 6 10 10 11 11 11 11
15 20 20 14 14 13 15 13 10 11 11 11 10 8 8 5 7 5 7 9 7 4 6 8 10 9 8 8 7 7 6 8 8 9 8 9 7 6 7 10 10 11 10
17 20 20 16 17 13 13 13 13 15 11 11 11 9 12 11 14 6 7 7 7 6 8 7 9 10 9 6 7 7 5 6 4 4 5 6 9 9 6 8 9 9 9
16 22 20 14 16 15 12 12 11 12 12 13 12 10 13 14 15 9 6 9 9 9 10 10 12 9 9 8 8 6 5 4 3 1 3 5 6 11 10 7 5 5 7
14 22 21 19 16 13 11 11 12 12 11 11 9 15 5 3 10 14 11 11 10 9 12 14 13 15 8 10 7 5 5 5 3 3 2 3 4 8 11 9 7 5 4
12 21 21 21 17 14 10 12 10 10 10 8 11 12 11 5 6 8 5 8 8 15 14 14 14 10 8 9 5 5 3 0 3 3 2 1 4 5 8 10 9 10 8
12 21 20 21 19 16 13 11 10 11 10 8 11 12 13 13 8 11 7 5 6 5 11 13 14 14 9 9 12 5 4 4 4 3 4 4 5 3 5 6 6 8 9
11 20 20 21 20 17 11 13 17 14 13 11 10 12 14 17 15 13 9 12 9 5 13 12 11 12 10 10 7 7 1 6 4 4 4 5 5 6 5 5 6 5 6
19 17 20 22 22 19 16 14 9 10 13 13 13 18 17 16 18 19 16 12 14 7 14 15 13 13 10 9 9 4 4 4 4 4 4 5 5 5 5 5 6 5 6
26 27 19 24 24 21 20 18 16 15 10 15 17 16 15 15 16 19 19 8 10 8 15 13 14 15 11 11 8 6 4 4 4 3 3 5 8 5 5 5 5 5 5
Wind_Direction
112 128 132 130 132 134 134 134 130 132 134 131 128 126 120 117 116 113 115 117 116 119 113 112 107 102 101 100 99 97 91 91 94 97 96 91 90 94 90 96 85 82 82
119 135 129 128 131 134 135 129 132 136 139 135 132 130 124 124 122 121 118 119 121 122 120 117 110 109 109 105 101 99 101 105 106 104 97 89 87 84 80 75 80 78 74
120 126 137 128 134 136 142 136 136 141 142 139 134 129 128 130 128 120 118 124 127 125 124 118 117 116 113 107 112 118 124 125 126 125 97 88 82 83 82 82 81 82 81
125 147 138 131 137 137 142 137 138 146 144 138 135 128 127 127 133 122 111 117 126 122 123 124 122 124 114 117 124 115 121 123 140 99 100 93 88 86 86 85 84 82 79
131 157 132 132 134 140 141 138 142 145 138 132 133 126 123 127 124 118 115 117 118 126 121 124 127 121 119 122 120 133 144 150 171 85 73 81 83 83 80 79 78 75 75
143 117 132 129 127 138 142 144 148 148 130 131 128 128 126 122 117 118 115 117 118 126 123 131 130 124 128 146 153 152 118 118 165 88 92 85 85 84 82 84 84 81 82
103 120 131 128 128 140 145 147 153 144 133 133 137 125 124 124 116 111 126 125 133 130 125 129 129 133 139 145 125 118 3 12 90 106 90 86 89 90 89 88 88 87 89
123 120 135 130 133 145 145 149 149 142 136 137 141 137 131 128 130 137 138 127 129 123 126 127 134 139 141 147 110 67 308 286 100 97 93 93 93 94 94 91 91 90 89
115 123 130 141 140 145 146 147 137 139 140 142 138 130 127 139 146 150 140 140 142 151 137 134 146 143 151 116 126 190 337 103 102 101 100 96 97 99 95 96 95 95 96
120 128 144 142 156 148 146 135 139 143 140 136 140 145 157 157 156 142 146 144 152 156 144 143 153 149 133 144 155 90 105 103 99 93 94 103 105 100 98 96 98 98 98
115 119 134 157 147 145 134 139 140 145 144 140 147 165 153 159 150 141 139 159 163 147 141 142 151 140 143 136 113 355 92 97 99 97 103 107 107 101 101 103 102 102 101
144 150 160 171 163 142 135 146 144 143 141 151 148 159 160 151 152 158 165 158 138 136 137 139 140 145 162 151 151 115 106 102 94 103 110 110 107 106 106 108 107 105 104
165 169 182 188 163 147 142 138 137 139 141 141 143 153 178 148 149 145 142 138 138 139 147 141 143 173 171 148 99 101 99 102 96 102 110 114 110 110 112 113 113 110 107
166 164 190 180 168 151 143 145 137 140 137 135 145 149 227 149 157 150 150 149 153 160 153 156 170 184 169 114 115 108 110 106 106 109 119 113 115 116 117 118 115 114 112
165 162 171 175 178 150 149 144 143 145 141 141 149 161 238 160 156 151 151 158 169 166 175 169 176 188 153 116 111 101 103 109 116 124 117 118 118 119 123 122 121 118 114
163 159 164 187 174 157 153 156 153 150 144 146 160 175 222 148 149 158 158 162 180 163 179 173 172 167 138 119 114 114 114 111 116 120 120 105 124 128 126 127 125 121 118
168 157 165 184 163 167 154 160 156 156 151 154 162 167 179 228 169 159 174 167 188 164 180 150 114 114 118 111 107 113 110 121 125 131 128 123 102 104 117 123 126 125 125
186 167 159 174 173 175 157 157 160 157 154 153 157 167 183 204 166 156 164 171 176 203 134 131 126 125 108 115 123 123 122 120 138 147 154 149 150 127 101 115 130 136 140
189 154 163 165 173 190 172 156 160 158 161 162 159 175 181 194 184 183 161 166 188 131 123 132 125 121 120 118 114 112 112 121 129 154 155 151 154 151 133 127 136 144 153
206 155 161 168 170 187 171 155 161 163 170 172 166 184 201 193 182 178 175 187 187 143 148 145 129 120 128 127 106 82 81 74 100 149 147 149 158 137 139 143 143 150 159
203 158 163 167 173 180 187 169 163 169 168 165 170 171 163 315 174 192 191 201 190 151 155 145 134 130 139 128 103 66 38 12 350 224 166 168 203 145 152 159 175 164 163
189 161 165 168 161 187 196 173 168 163 165 159 156 167 170 194 276 199 198 178 185 165 145 142 145 136 139 163 134 125 134 256 292 273 179 222 250 175 166 174 184 171 165
187 163 168 165 167 179 196 185 164 161 163 152 157 168 176 178 219 260 192 185 176 125 140 154 151 148 159 192 162 147 149 201 141 177 231 230 251 203 171 180 200 160 172
207 164 169 164 170 174 187 203 189 169 174 168 159 157 168 177 208 254 229 181 187 161 148 155 160 157 160 185 187 241 246 129 181 155 199 215 232 196 206 185 177 182 164
324 173 171 160 168 174 179 200 199 207 175 168 160 160 167 181 195 207 238 186 181 187 158 162 167 165 178 187 193 172 196 212 141 140 153 190 215 187 206 195 172 177 186
347 342 166 163 169 175 180 187 202 211 198 171 166 169 172 189 193 201 210 188 177 188 162 169 173 178 191 187 190 195 185 178 163 154 113 166 184 200 194 180 191 183 181